This demonstration page uses our WeatherBlox Daily Observations layout. Learn more.

Hourly Observations for December 25, 2017

Temp ( °F °C ) Dew Point ( °F °C ) Humidity (%) Winds ( mph kmh ) Pressure ( in mb ) Visibility ( mi km ) Precip ( " mm )
12:39 am 00:39 Cloudy with Light Snow 22 -5.6 13 -10.6 68 68 W 17 28 30.21 1023 9 14.48406 0 0.0254
12:53 am 00:53 Cloudy with Light Snow 22 -5.6 14 -10 71 71 W 15 24 30.19 1022 10 16.0934 0 0.0254
1:17 am 01:17 Cloudy 22 -5.6 14 -10 71 71 W 15 24 30.21 1023 9 14.48406 0 0.0254
1:53 am 01:53 Cloudy with Light Snow 22 -5.6 15 -9.4 75 75 W 15 24 30.21 1023 8 12.87472 0 0.0254
2:53 am 02:53 Cloudy with Light Snow 22 -5.6 13 -10.6 68 68 W 17 28 30.24 1024 7 11.26538 0 0.0254
3:53 am 03:53 Cloudy 23 -5 12 -11.1 63 63 WSW 12 19 30.27 1025 10 16.0934 0 0.0254
4:53 am 04:53 Cloudy with Light Snow 22 -5.6 14 -10 71 71 W 13 20 30.28 1025 7 11.26538 0 0.0254
5:53 am 05:53 Cloudy 23 -5 14 -10 68 68 W 14 22 30.29 1026 9 14.48406 0 0.0254
6:53 am 06:53 Cloudy 23 -5 14 -10 68 68 W 13 20 30.31 1027 9 14.48406 0 0.0254
7:53 am 07:53 Mostly Cloudy 22 -5.6 14 -10 71 71 WSW 10 17 30.33 1027 10 16.0934 0 0
8:29 am 08:29 Mostly Cloudy 22 -5.6 14 -10 71 71 W 10 17 30.33 1027 10 16.0934 0 0
8:53 am 08:53 Partly Cloudy 22 -5.6 12 -11.1 66 66 WSW 13 20 30.33 1027 10 16.0934 0 0
9:53 am 09:53 Sunny 23 -5 12 -11.1 63 63 WSW 13 20 30.34 1027 10 16.0934 0 0
10:53 am 10:53 Mostly Sunny 24 -4.4 12 -11.1 60 60 W 13 20 30.35 1028 10 16.0934 0 0
11:53 am 11:53 Partly Cloudy 25 -3.9 14 -10 63 63 WSW 15 24 30.34 1028 10 16.0934 0 0
12:53 pm 12:53 Mostly Sunny 26 -3.3 13 -10.6 57 57 W 17 28 30.34 1027 10 16.0934 0 0
1:53 pm 13:53 Sunny 27 -2.8 10 -12.2 49 49 W 13 20 30.33 1027 10 16.0934 0 0
2:53 pm 14:53 Sunny 27 -2.8 7 -13.9 43 43 W 14 22 30.35 1028 10 16.0934 0 0
3:53 pm 15:53 Sunny 27 -2.8 6 -14.4 41 41 W 13 20 30.37 1029 10 16.0934 0 0
4:53 pm 16:53 Sunny 26 -3.3 4 -15.6 38 38 W 13 20 30.4 1029 10 16.0934 0 0
5:53 pm 17:53 Clear 24 -4.4 5 -15 44 44 W 9 15 30.42 1030 10 16.0934 0 0
6:53 pm 18:53 Clear 23 -5 7 -13.9 50 50 W 5 7 30.44 1031 10 16.0934 0 0
7:53 pm 19:53 Clear 22 -5.6 8 -13.3 55 55 W 6 9 30.45 1031 10 16.0934 0 0
8:53 pm 20:53 Clear 21 -6.1 9 -12.8 59 59 WSW 5 7 30.45 1031 10 16.0934 0 0
9:53 pm 21:53 Clear 21 -6.1 9 -12.8 59 59 W 6 9 30.46 1032 10 16.0934 0 0
10:53 pm 22:53 Clear 21 -6.1 10 -12.2 62 62 WSW 5 7 30.48 1032 10 16.0934 0 0
11:53 pm 23:53 Clear 21 -6.1 10 -12.2 62 62 W 3 6 30.47 1032 10 16.0934 0 0

Powered by AerisWeather